UAL1710 KIAH-KSMF

Flight info

Callsign UAL1710
Flight time N/A
Altitude 34000
Route BNDTO6 CRGER CNX J15 ABQ HASSL Q130 ROCCY Q164 KITTN CRASY SLMMR5
Aircraft B38M/M-SDE1FGHILORVWXY/HB1

Departure

Time 2025-09-08 20:36
Airport George Bush Intercontinental Airport (KIAH)

Arrival

Time N/A
Airport Sacramento International Airport (KSMF)
Time Latitude Longitude Altitude Speed Heading
2025-09-08 20:10 29.98943 -95.34201 109 ft 0 kts 118°
2025-09-08 20:26 29.98951 -95.34221 108 ft 3 kts 102°
2025-09-08 20:26 29.98952 -95.34242 109 ft 3 kts 66°
2025-09-08 20:27 29.98928 -95.34261 109 ft 2 kts
2025-09-08 20:30 29.99019 -95.34260 109 ft 14 kts
2025-09-08 20:31 29.99085 -95.34556 109 ft 16 kts 269°
2025-09-08 20:32 29.99090 -95.35000 109 ft 21 kts 272°
2025-09-08 20:32 29.99091 -95.35353 109 ft 23 kts 270°
2025-09-08 20:33 29.98978 -95.35484 109 ft 14 kts 180°
2025-09-08 20:33 29.98848 -95.35635 110 ft 16 kts 240°
2025-09-08 20:34 29.98689 -95.35726 110 ft 19 kts 152°
2025-09-08 20:34 29.98322 -95.35499 107 ft 98 kts 152°
2025-09-08 20:35 29.96444 -95.34401 604 ft 175 kts 152°
2025-09-08 20:35 29.94056 -95.33288 2043 ft 196 kts 180°
2025-09-08 20:36 29.91946 -95.35404 3130 ft 237 kts 262°
2025-09-08 20:36 29.92977 -95.38934 4907 ft 240 kts 303°
2025-09-08 20:37 29.94166 -95.42797 6057 ft 277 kts 284°
2025-09-08 20:37 29.94596 -95.44951 7038 ft 272 kts 284°
2025-09-08 20:37 29.95504 -95.49241 8849 ft 281 kts 285°
2025-09-08 20:38 29.96624 -95.56288 10824 ft 318 kts 281°
2025-09-08 20:39 29.97421 -95.61635 11460 ft 358 kts 281°
2025-09-08 20:39 29.98612 -95.67476 12062 ft 387 kts 285°
2025-09-08 20:40 29.99944 -95.73495 13409 ft 391 kts 285°
2025-09-08 20:40 30.01278 -95.79614 14558 ft 395 kts 285°
2025-09-08 20:40 30.01949 -95.82699 15081 ft 398 kts 285°
2025-09-08 20:41 30.03302 -95.88933 16099 ft 402 kts 285°
2025-09-08 20:41 30.04665 -95.95228 17063 ft 407 kts 285°
2025-09-08 20:42 30.06736 -96.04821 18413 ft 414 kts 285°
2025-09-08 20:43 30.08322 -96.14676 19550 ft 418 kts 282°
2025-09-08 20:43 30.09381 -96.21315 20256 ft 422 kts 282°
2025-09-08 20:44 30.09904 -96.24656 20600 ft 424 kts 281°
2025-09-08 20:44 30.10935 -96.31376 21262 ft 427 kts 281°
2025-09-08 20:44 30.11454 -96.34758 21587 ft 429 kts 281°
2025-09-08 20:45 30.12454 -96.41293 22200 ft 432 kts 281°
2025-09-08 20:45 30.13500 -96.48152 22797 ft 436 kts 281°
2025-09-08 20:46 30.15606 -96.62037 23874 ft 444 kts 281°
2025-09-08 20:47 30.16137 -96.65554 24134 ft 445 kts 281°
2025-09-08 20:47 30.17199 -96.72612 24636 ft 447 kts 281°
2025-09-08 20:48 30.19859 -96.90397 25853 ft 452 kts 281°
2025-09-08 20:51 30.24682 -97.22835 28110 ft 454 kts 281°
2025-09-08 20:53 30.28853 -97.51148 30837 ft 441 kts 280°
2025-09-08 20:55 30.33362 -97.78774 33270 ft 432 kts 285°
2025-09-08 20:57 30.38986 -98.05603 34238 ft 429 kts 285°
2025-09-08 20:59 30.45685 -98.35249 36091 ft 414 kts 302°
2025-09-08 21:01 30.56960 -98.54852 36140 ft 418 kts 303°
2025-09-08 21:03 30.71602 -98.80009 36142 ft 416 kts 303°
2025-09-08 21:04 30.81302 -98.96760 36119 ft 416 kts 303°
2025-09-08 21:07 30.97382 -99.24692 36134 ft 415 kts 303°
2025-09-08 21:09 31.08590 -99.44277 36105 ft 415 kts 303°
2025-09-08 21:11 31.22940 -99.69499 36095 ft 413 kts 302°
2025-09-08 21:13 31.34037 -99.89115 36103 ft 414 kts 302°
2025-09-08 21:15 31.58066 -100.31916 36133 ft 414 kts 302°
2025-09-08 21:17 31.82111 -100.75269 36099 ft 413 kts 301°
2025-09-08 21:19 32.06892 -101.20490 36082 ft 411 kts 301°
2025-09-08 21:21 32.31542 -101.65901 36128 ft 411 kts 301°
2025-09-08 21:23 32.55973 -102.11533 36090 ft 411 kts 300°
2025-09-08 21:25 32.80226 -102.57435 36178 ft 410 kts 301°
2025-09-08 21:27 33.04334 -103.03518 36033 ft 411 kts 300°
2025-09-08 21:29 33.28302 -103.49963 35989 ft 412 kts 298°
2025-09-08 21:31 33.52156 -103.96820 35964 ft 413 kts 301°
2025-09-08 21:33 33.75908 -104.44137 35938 ft 415 kts 300°
2025-09-08 21:35 34.02758 -104.98189 35982 ft 418 kts 299°
2025-09-08 21:37 34.23583 -105.40673 36048 ft 421 kts 299°
2025-09-08 21:39 34.49428 -105.88245 36083 ft 422 kts 292°
2025-09-08 21:41 34.77012 -106.34079 36077 ft 427 kts 290°
2025-09-08 21:43 35.04340 -106.80521 36262 ft 422 kts 290°
2025-09-08 21:45 35.33590 -107.25304 36036 ft 440 kts 317°
2025-09-08 21:47 35.62744 -107.71758 36048 ft 442 kts 320°
2025-09-08 21:49 35.92191 -108.18822 35948 ft 445 kts 313°
2025-09-08 21:51 36.22832 -108.65841 36041 ft 448 kts 316°
2025-09-08 21:53 36.52324 -109.14047 36073 ft 450 kts 321°
2025-09-08 21:55 36.73315 -109.48097 36024 ft 450 kts 305°
2025-09-08 21:57 36.86534 -109.69860 35993 ft 450 kts 305°
2025-09-08 21:59 37.01612 -109.94863 35999 ft 450 kts 305°
2025-09-08 22:00 37.14771 -110.16838 36016 ft 451 kts 304°
2025-09-08 22:03 37.32880 -110.47316 35974 ft 451 kts 304°
2025-09-08 22:05 37.45947 -110.69469 35971 ft 451 kts 304°
2025-09-08 22:07 37.60522 -110.99544 35935 ft 445 kts 276°
2025-09-08 22:09 37.65848 -111.25989 36014 ft 446 kts 284°
2025-09-08 22:11 37.73681 -111.59847 36070 ft 446 kts 284°